Terminal Aerodrome Forecast
Issued by NWS

Current Version | Previous Version | Text Only | Print | Product List | Glossary Off
Versions: 1 2 3 4 5 6 7 8 9 10 11 12 13 14 15 16 17 18 19 20 21 22 23 24 25 26 27

000
FTUS41 KRLX 081500 AAA
TAFCKB
TAF AMD
KCKB 081514Z 0815/0912 22011G20KT P6SM BKN040
     FM081800 21015G21KT P6SM VCTS SCT045CB
     FM081900 22015G24KT 5SM TSRA BR BKN035CB
     FM090100 25008KT P6SM VCTS BKN030CB
     FM090500 26006KT P6SM BKN030
     FM091000 00000KT 5SM BR BKN030=

USA.gov is the U.S. government's official web portal to all federal, state and local government web resources and services.